Regional Weather Roundup
Issued by NWS

Home | Current Version | Previous Version | Graphics & Text | Print | Product List | Glossary On
Versions: 1 2 3 4 5 6 7 8 9 10 11 12 13 14 15 16 17 18 19 20 21 22 23 24 25 26 27 28 29 30 31 32 33 34 35 36 37 38 39 40 41 42 43 44 45 46 47 48 49 50
000
ASUS43 KMKX 302011
RWRWI

WISCONSIN REGIONAL WEATHER ROUNDUP
NATIONAL WEATHER SERVICE MILWAUKEE/SULLIVAN WI
300 PM CDT MON MAY 30 2016

NOTE: "FAIR" INDICATES FEW OR NO CLOUDS BELOW 12,000 FEET WITH NO
SIGNIFICANT WEATHER AND/OR OBSTRUCTIONS TO VISIBILITY.

WIZ001-002-006>008-014>016-023>028-302100-
NORTHWEST WISCONSIN

CITY           SKY/WX    TMP DP  RH WIND       PRES   REMARKS
SUPERIOR ARPT  PTSUNNY   83  48  29 W5        29.93F HX  81
ASHLAND        PTSUNNY   79  47  32 NW8       29.95F
HAYWARD        PTSUNNY   78  45  30 VRB5      29.97F
SIREN          MOSUNNY   81  49  33 SW10      29.97S HX  80
CUMBERLAND     SUNNY     77  48  36 SW7       29.98F
RICE LAKE      SUNNY     80  48  33 SW10      30.00F
CHETEK         PTSUNNY   79  51  37 W6        29.99F
LADYSMITH      MOSUNNY   78  53  42 SW9       30.01F
EAU CLAIRE     SUNNY     80  49  33 CALM      29.97F
MENOMONIE      SUNNY     84  50  31 W3        29.98F HX  82
NEW RICHMOND   SUNNY     80  50  35 SW10      29.98F
OSCEOLA        MOSUNNY   81  53  37 SW8       29.99F HX  80
$$

WIZ003>005-009-010-017-018-302100-
NORTH CENTRAL WISCONSIN

CITY           SKY/WX    TMP DP  RH WIND       PRES   REMARKS
MANITOWISH WTR NOT AVBL
ARBOR VITAE    SUNNY     77  44  31 W8G16     30.00S
WOODRUFF       SUNNY     77  44  31 W8G16     30.00S
RHINELANDER    PTSUNNY   78  45  30 W12       30.01F
EAGLE RIVER      N/A     76  40  27 NW15      30.00S
LAND O LAKES   MOSUNNY   75  42  30 NW8       30.01S
PHILLIPS       MOSUNNY   76  49  38 NW3       29.99F
TOMAHAWK       CLOUDY    76  46  34 W10G18    30.01S
MEDFORD        SUNNY     75  51  43 W10G16    30.01F
MERRILL        MOSUNNY  N/A N/A N/A NW8       30.00F
$$

WIZ029-030-035-036-043>047-302100-
CENTRAL WISCONSIN

CITY           SKY/WX    TMP DP  RH WIND       PRES   REMARKS
WAUSAU         SUNNY     80  50  34 W13       29.99F HX  80
MOSINEE        NOT AVBL
MARSHFIELD     SUNNY     79  50  36 W8        30.00F
STEVENS POINT  SUNNY     76  46  34 NW8       30.01F
WAUPACA        SUNNY     82  43  25 W3        29.99F HX  80
WAUTOMA        SUNNY    N/A N/A N/A NW9       29.99F
WISC RAPIDS    SUNNY     81  44  27 NW8       30.00F HX  80
CAMP DOUGLAS   SUNNY     80  54  41 W3        29.99F HX  80
$$

WIZ011>013-019>022-031-037>040-048>050-302100-
NORTHEAST WISCONSIN

CITY           SKY/WX    TMP DP  RH WIND       PRES   REMARKS
ANTIGO         MOSUNNY   75  52  43 NW10G16   30.01F
SHAWANO        PTSUNNY   82  47  29 W9        29.99S HX  80
OCONTO         MOSUNNY   80  50  34 W8        29.97S HX  80
STURGEON BAY   NOT AVBL
GREEN BAY      MOSUNNY   79  50  36 W10       29.98F
MANITOWOC      MOSUNNY   79  49  34 W8        29.99F
APPLETON       MOSUNNY   79  45  29 W8        29.99F
CLINTONVILLE   SUNNY     79  45  29 NW10      29.99F
OSHKOSH        SUNNY     79  50  36 CALM      29.99F
$$

WIZ032>034-041-042-053>061-302100-
SOUTHWEST WISCONSIN

CITY           SKY/WX    TMP DP  RH WIND       PRES   REMARKS
LA CROSSE      SUNNY     84  46  26 VRB5      29.97F HX  82
SPARTA         SUNNY     80  47  31 W3        30.01F
VIROQUA        SUNNY     80  45  28 NE5       30.01F
BOSCOBEL       SUNNY     84  48  28 VRB3      29.99S HX  82
PRAIRIE DU CHI SUNNY     81  42  25 CALM      29.99F
PLATTEVILLE    SUNNY     80  47  31 S3        30.00F
$$

WIZ056-057-062-063-064-067-068-302100-
SOUTH CENTRAL WISCONSIN

CITY           SKY/WX    TMP DP  RH WIND       PRES   REMARKS
REEDSBURG      SUNNY     80  50  35 N8        29.99F
BARABOO/DELLS  SUNNY     80  41  24 N5        30.00S
LONE ROCK      MOSUNNY   83  48  29 N10       29.99F HX  81
MINERAL POINT  SUNNY     81  41  24 NE6       30.01F
MADISON        MOSUNNY   81  49  32 N9        29.99F HX  80
MIDDLETON      MOSUNNY   80  49  33 E5        30.00F HX  80
WATERTOWN      SUNNY     79  54  41 NW6       29.98F
MONROE         MOSUNNY   79  46  31 N6        30.00S
JANESVILLE     SUNNY     84  46  26 NW6       29.98F HX  82
$$

WIZ051-052-058>065-066-070>072-302100-
SOUTHEAST WISCONSIN

CITY           SKY/WX    TMP DP  RH WIND       PRES   REMARKS
MILWAUKEE      MOSUNNY   75  60  59 E9        29.99S
WAUKESHA       MOSUNNY   79  54  41 NW17      30.00F
MILWAUKEE/TIMM MOSUNNY   81  50  34 NE5       29.99F HX  80
RACINE         SUNNY     75  58  55 SE10      30.00F
BURLINGTON     SUNNY     82  48  30 W6        29.99S HX  80
KENOSHA        MOSUNNY   79  60  52 E12       29.99S HX  80
FOND DU LAC    SUNNY     79  53  40 NW5       29.99F
SHEBOYGAN      SUNNY     78  49  35 NW8       29.99F HAZE
WEST BEND      SUNNY     79  46  31 W7        29.99F
JUNEAU         SUNNY     77  55  45 NW5       30.00F
$$

LSZ147-162-302100-
LAKE SUPERIOR

STATION/POSITION TIME  TEMP    WIND        PRES    WAVE
                       AIR SEA DIR/SP/G            HT/PER
                 (UTC) (F)     (DEG/KT/KT) (MB)    (FT/S)
W MID LAKE BUOY  1950   46 38  240/  8/ 10 1014.5R   1
DEVILS ISLAND    2000   71     230/  8/ 12 1014.0F
SAXON HARBOR     1940   74      70/  5/  6 1014.2F
$$

LMZ867-665-643>646-302100-
LAKE MICHIGAN

STATION/POSITION TIME  TEMP    WIND        PRES    WAVE
                       AIR SEA DIR/SP/G            HT/PER
                 (UTC) (F)     (DEG/KT/KT) (MB)    (FT/S)
CHAMBERS ISLAND  1900   73     160/  6/ 11 1014.9F
N MID LAKE BUOY  1950   52 50  190/  8/ 10 1014.8F   1
NORTHPORT PIER   2000          130/  9/ 25 1014.6F
KEWAUNEE LAKESHO 1900          140/  3/  7 1015.4F
SHEBOYGAN LAKESH 2000   64     170/ 12/ 12 1015.8F
PORT WASHINGTON  1940   68     100/  3/  4 1016.6F
S MID LAKE BUOY  1950   60 57  110/  4/  4 1015.5F   0
KENOSHA   LAKESH 2000   62     360/  3/  4 1015.6S
$$

TC  - TEMPERATURE IN CELSIUS
VSB - VISIBILITY IN STATUTE MILES
WCI - WIND CHILL INDEX
HX  - HEAT INDEX





USA.gov is the U.S. government's official web portal to all federal, state and local government web resources and services.